Regional Weather Roundup
Issued by NWS Newport/Morehead, NC

Current Version | Previous Version | Text Only | Print | Product List | Glossary Off
Versions: 1 2 3 4 5 6 7 8 9 10 11 12 13 14 15 16 17 18 19 20 21 22 23 24 25 26 27 28 29 30 31 32 33 34 35 36 37 38 39 40 41 42 43 44 45 46 47 48 49 50
000 ASUS42 KMHX 210614 RWRMHX WEATHER ROUNDUP FOR EASTERN NORTH CAROLINA NATIONAL WEATHER SERVICE NEWPORT/MOREHEAD CITY NC 200 AM EDT FRI JUL 21 2017 NOTE: "FAIR" INDICATES FEW OR NO CLOUDS BELOW 12,000 FEET WITH NO SIGNIFICANT WEATHER AND/OR OBSTRUCTIONS TO VISIBILITY NCZ015>017-031-032-045>047-102-103-210700- NORTH COAST CITY SKY/WX TMP DP RH WIND PRES REMARKS EDENTON CLOUDY 80 74 82 CALM 30.01F ELIZABETH CITY CLOUDY 78 75 90 SW8 29.99F KITTY HAWK PTCLDY 79 73 83 CALM 29.99F MANTEO CLOUDY 78 74 86 SW10 30.01F $$ NCZ045>047-081-094-103-104-210700- CENTRAL COAST CITY SKY/WX TMP DP RH WIND PRES REMARKS FRISCO PTCLDY 79 74 84 SW7 30.01F $$ NCZ095-097-098-100-101-210700- SOUTHERN COAST CITY SKY/WX TMP DP RH WIND PRES REMARKS BEAUFORT PTCLDY 81 78 91 SW10 30.01F CEDAR ISLAND NOT AVBL JACKSONVILLE CLEAR 77 76 96 SW6 30.00F PINEY ISLAND FLURRIES N/A N/A N/A SW6 30.01F WILMINGTON CLEAR 78 76 93 SW6 30.02F $$ NCZ011>013-027>030-043-044-078>080-089-090>093-098-210700- COASTAL PLAIN CITY SKY/WX TMP DP RH WIND PRES REMARKS AHOSKIE N/A 74 73 96 CALM 29.99F CLINTON CLEAR 76 76 98 CALM 30.01F ELIZABETHTOWN NOT AVBL GOLDSBORO CLEAR 77 77 100 S3 29.99F GREENVILLE CLEAR 79 73 83 SW8 30.02F HAVELOCK CLEAR 76 74 93 SW5 30.02F KENANSVILLE CLEAR 75 73 94 CALM 30.01F KINSTON PTCLDY 77 73 88 SW6 30.01F NEW BERN CLEAR 76 75 97 SW6 30.02F RICHLANDS CLEAR 74 74 100 SW3 30.02F ROCKY MOUNT CLEAR 78 76 93 SW6 30.00F WASHINGTON PTCLDY 77 73 86 S5 30.01F WHITEVILLE CLEAR 76 74 92 CALM 30.02F $$ AMZ130-135-150-152-154-156-158-170-250-252-270-ANZ085-086-088-633-658-670-210700- MARINE OBSERVATIONS STATION/POSITION TIME TEMP WIND PRES WAVE SWELL AIR SEA DIR/SP/G HT/PER HT/PER (UTC) (F) (DEG/KT/KT) (MB) (FT/S) (FT/S) CHESAPEAKE LIGHT NOT AVBL 64 E VA BEACH 0550 80 80 220/ 12/ 16 1015.7 3/ 6 2/ 6 DUCK 0548 220/ 16/ 19 1015.1 2 E DUCK 0600 65 N/A 2/14 2/14 OREGON INLET 0542 220/ 16/ 18 1015.9 13E OREGON INLT 0548 78 N/A 2/14 2/14 HATTERAS CG 0548 230/ 7/ 9 1016.0 DIAMOND BUOY 0550 82 84 240/ 14/ 16 1016.1 3/ 6 2/ 6 CAPE LOOKOUT 0600 81 250/ 9/ 12 1016.0 BEAUFORT LAB 0548 240/ 7/ 12 1015.7 30 SE NEW RVR IN 0508 81 82 240/ 12/ 16 1017.0 30 SE NEW RVR IN 0543 82 N/A 3/ 4 2/14 27 SE WRIGHTSVLE 0508 81 81 220/ 10/ 16 1016.8 5 SE WRIGHTSVLE 0508 81 80 240/ 8/ 14 1016.8 225 S CAPE HAT 0550 81 83 230/ 10/ 12 1017.5 3/ 8 3/ 8 41 SE CHARLESTON 0550 82 84 220/ 10/ 14 1016.5 3/ 8 2/ 8 $$

USA.gov is the U.S. government's official web portal to all federal, state and local government web resources and services.